This demonstration page uses our WeatherBlox Daily Observations layout. Learn more.

Left ArrowRight Arrow

Hourly Observations for January 8, 2022

Temp ( °F °C ) Dew Point ( °F °C ) Humidity (%) Winds ( mph kmh ) Pressure ( in mb ) Visibility ( mi km ) Precip ( " mm )
12:15 am 00:15 Partly Cloudy 21 -6 14 -10 74 74 WNW 8 13 30.44 1031 10 16 N/A
12:35 am 00:35 Partly Cloudy 21 -6 14 -10 74 74 WNW 8 13 30.46 1032 10 16 N/A
12:55 am 00:55 Partly Cloudy 23 -5 14 -10 68 68 WNW 13 20 30.46 1032 10 16 N/A
1:15 am 01:15 Clear 23 -5 14 -10 68 68 WSW 6 9 30.49 1033 10 16 N/A
1:35 am 01:35 Clear 21 -6 14 -10 74 74 WNW 6 9 30.50 1033 10 16 N/A
1:55 am 01:55 Clear 21 -6 14 -10 74 74 WNW 7 11 30.51 1033 10 16 N/A
2:15 am 02:15 Clear 21 -6 14 -10 74 74 W 5 7 30.52 1034 10 16 N/A
2:35 am 02:35 Clear 21 -6 14 -10 74 74 W 3 6 30.52 1034 10 16 N/A
2:55 am 02:55 Clear 21 -6 12 -11 68 68 WNW 8 13 30.52 1034 10 16 N/A
3:15 am 03:15 Clear 21 -6 12 -11 68 68 WNW 7 11 30.53 1034 10 16 N/A
3:35 am 03:35 Clear 21 -6 14 -10 74 74 NW 8 13 30.54 1034 10 16 N/A
3:55 am 03:55 Clear 21 -6 14 -10 74 74 WNW 10 17 30.54 1034 10 16 N/A
4:15 am 04:15 Clear 23 -5 14 -10 68 68 WNW 9 15 30.55 1035 10 16 N/A
4:35 am 04:35 Clear 23 -5 14 -10 68 68 NW 9 15 30.55 1035 10 16 N/A
4:55 am 04:55 Clear 21 -6 14 -10 74 74 NNW 10 17 30.56 1035 10 16 N/A
5:15 am 05:15 Clear 21 -6 14 -10 74 74 NNW 12 19 30.55 1035 10 16 N/A
5:35 am 05:35 Clear 21 -6 14 -10 74 74 NNW 9 15 30.56 1035 10 16 N/A
5:55 am 05:55 Clear 21 -6 12 -11 68 68 NNW 7 11 30.57 1035 10 16 N/A
6:15 am 06:15 Clear 21 -6 12 -11 68 68 NW 7 11 30.58 1036 10 16 N/A
6:35 am 06:35 Clear 21 -6 12 -11 68 68 WNW 6 9 30.60 1036 10 16 N/A
6:55 am 06:55 Clear 19 -7 12 -11 73 73 NW 7 11 30.61 1037 10 16 N/A
7:15 am 07:15 Clear 21 -6 12 -11 68 68 NW 5 7 30.63 1037 10 16 N/A
7:35 am 07:35 Sunny 19 -7 12 -11 73 73 NNW 6 9 30.64 1038 10 16 N/A
7:55 am 07:55 Sunny 19 -7 12 -11 73 73 NW 5 7 30.64 1038 10 16 N/A
8:15 am 08:15 Sunny 21 -6 12 -11 68 68 NW 5 7 30.66 1038 10 16 N/A
8:35 am 08:35 Sunny 21 -6 14 -10 74 74 NNW 5 7 30.66 1038 10 16 N/A
8:55 am 08:55 Sunny 23 -5 14 -10 68 68 NNW 5 7 30.67 1039 10 16 N/A
9:15 am 09:15 Sunny 23 -5 14 -10 68 68 NW 3 6 30.69 1039 10 16 N/A
9:35 am 09:35 Sunny 25 -4 14 -10 63 63 NW 5 7 30.72 1040 10 16 N/A
9:55 am 09:55 Sunny 27 -3 14 -10 59 59 NW 5 7 30.72 1040 10 16 N/A
10:15 am 10:15 Sunny 27 -3 14 -10 59 59 NNW 5 7 30.72 1040 10 16 N/A
10:35 am 10:35 Sunny 27 -3 14 -10 59 59 N N/A 30.71 1040 10 16 N/A
10:55 am 10:55 Sunny 28 -2 14 -10 55 55 N N/A 30.71 1040 10 16 N/A
11:15 am 11:15 Sunny 28 -2 14 -10 55 55 N N/A 30.70 1039 10 16 N/A
11:35 am 11:35 Sunny 28 -2 14 -10 55 55 N N/A 30.69 1039 10 16 N/A
11:55 am 11:55 Sunny 30 -1 14 -10 51 51 N N/A 30.67 1039 10 16 N/A
12:15 pm 12:15 Sunny 30 -1 14 -10 51 51 N N/A 30.65 1038 10 16 N/A
12:35 pm 12:35 Sunny 32 undefined 14 -10 47 47 N N/A 30.65 1038 10 16 N/A
12:55 pm 12:55 Sunny 30 -1 14 -10 51 51 N N/A 30.63 1037 10 16 0.01 0.25
1:15 pm 13:15 Sunny 32 undefined 14 -10 47 47 N N/A 30.62 1037 10 16 N/A
1:35 pm 13:35 Sunny 32 undefined 16 -9 51 51 S 6 9 30.62 1037 10 16 N/A
1:55 pm 13:55 Sunny 32 undefined 16 -9 51 51 S 6 9 30.60 1036 10 16 N/A
2:15 pm 14:15 Sunny 32 undefined 14 -10 47 47 S 8 13 30.60 1036 10 16 N/A
2:35 pm 14:35 Sunny 32 undefined 18 -8 55 55 SW 5 7 30.60 1036 10 16 N/A
2:55 pm 14:55 Sunny 32 undefined 18 -8 55 55 SSW 3 6 30.60 1036 10 16 N/A
3:15 pm 15:15 Sunny 32 undefined 18 -8 55 55 S 6 9 30.61 1037 10 16 N/A
3:35 pm 15:35 Sunny 32 undefined 14 -10 47 47 S 9 15 30.60 1036 10 16 N/A
3:55 pm 15:55 Sunny 32 undefined 16 -9 51 51 S 10 17 30.62 1037 10 16 N/A
4:15 pm 16:15 Sunny 32 undefined 16 -9 51 51 S 7 11 30.61 1037 10 16 N/A
4:35 pm 16:35 Sunny 32 undefined 18 -8 55 55 S 8 13 30.61 1037 10 16 N/A
4:55 pm 16:55 Sunny 32 undefined 18 -8 55 55 S 7 11 30.61 1037 10 16 N/A
5:15 pm 17:15 Clear 32 undefined 18 -8 55 55 S 8 13 30.61 1037 10 16 N/A
5:35 pm 17:35 Clear 30 -1 18 -8 59 59 S 5 7 30.61 1037 10 16 N/A
5:55 pm 17:55 Clear 30 -1 18 -8 59 59 S 6 9 30.61 1037 10 16 N/A
6:15 pm 18:15 Clear 30 -1 18 -8 59 59 SSW 6 9 30.62 1037 10 16 N/A
6:35 pm 18:35 Clear 30 -1 16 -9 55 55 S 6 9 30.62 1037 10 16 N/A
6:55 pm 18:55 Clear 30 -1 18 -8 59 59 S 6 9 30.61 1037 10 16 N/A
7:15 pm 19:15 Clear 30 -1 18 -8 59 59 S 10 17 30.59 1036 10 16 N/A
7:35 pm 19:35 Clear 30 -1 18 -8 59 59 S 6 9 30.59 1036 10 16 N/A
7:55 pm 19:55 Clear 30 -1 18 -8 59 59 S 9 15 30.59 1036 10 16 N/A
8:15 pm 20:15 Clear 30 -1 18 -8 59 59 S 10 17 30.58 1036 10 16 N/A
8:35 pm 20:35 Clear 30 -1 18 -8 59 59 S 9 15 30.57 1035 10 16 N/A
8:55 pm 20:55 Clear 30 -1 18 -8 59 59 S 8 13 30.56 1035 10 16 N/A
9:15 pm 21:15 Clear 30 -1 18 -8 59 59 S 8 13 30.55 1035 10 16 N/A
9:35 pm 21:35 Clear 30 -1 18 -8 59 59 S 9 15 30.54 1034 10 16 N/A
9:55 pm 21:55 Clear 30 -1 18 -8 59 59 S 10 17 30.53 1034 10 16 N/A
10:15 pm 22:15 Clear 28 -2 19 -7 69 69 S 6 9 30.56 1035 10 16 N/A
10:35 pm 22:35 Clear 28 -2 18 -8 64 64 S 7 11 30.55 1034 10 16 N/A
10:55 pm 22:55 Clear 28 -2 18 -8 64 64 S 5 7 30.55 1034 10 16 N/A
11:15 pm 23:15 Clear 28 -2 19 -7 69 69 S 8 13 30.53 1034 10 16 N/A
11:35 pm 23:35 Clear 30 -1 18 -8 59 59 S 12 19 30.50 1033 10 16 N/A
11:55 pm 23:55 Clear 30 -1 19 -7 64 64 S 10 17 30.50 1033 10 16 N/A

Powered by AerisWeather